When you browse on this site, cookies collect data to enhance your experience and personalize the content and advertising you see.
Visit our Privacy Policy to learn more. By continuing to use the site, you agree to this use of cookies and data.
  • In Romania
  • List of Countries
  • For 7 days
  • Water Temperature
  • Satellite Maps
  • Weather Map
  • Weather Widgets
  • user-avatar
    Login

    Hourly Weather Christchurch

    Today, 25 June, Tuesday

    Time Temperature Precipitation Wind Pressure Humidity
    00:00 +7°C° 0 mm 3 mps 769 mmHg 74%
    01:00 +5°C° 0 mm 3 mps 769 mmHg 75%
    02:00 +6°C° 0 mm 2 mps 769 mmHg 76%
    03:00 +6°C° 0 mm 2 mps 770 mmHg 78%
    04:00 +5°C° 0 mm 2 mps 770 mmHg 78%
    05:00 +5°C° 0 mm 2 mps 770 mmHg 79%
    06:00 +5°C° 0 mm 2 mps 770 mmHg 80%
    07:00 +6°C° 0 mm 1 mps 770 mmHg 79%
    08:00 +6°C° 0 mm 1 mps 770 mmHg 79%
    09:00 +6°C° 0 mm 1 mps 770 mmHg 78%
    10:00 +8°C° 0 mm 1 mps 770 mmHg 72%
    11:00 +10°C° 0 mm 1 mps 770 mmHg 67%
    12:00 +12°C° 0 mm 1 mps 770 mmHg 59%
    13:00 +12°C° 0 mm 1 mps 770 mmHg 59%
    14:00 +12°C° 0 mm 1 mps 769 mmHg 59%
    15:00 +13°C° 0 mm 1 mps 769 mmHg 60%
    16:00 +11°C° 0 mm 1 mps 770 mmHg 65%
    17:00 +9°C° 0 mm 1 mps 770 mmHg 70%
    18:00 +7°C° 0 mm 1 mps 771 mmHg 76%
    19:00 +7°C° 0 mm 1 mps 771 mmHg 77%
    20:00 +6°C° 0 mm 1 mps 771 mmHg 78%
    21:00 +6°C° 0 mm 1 mps 772 mmHg 80%
    22:00 +6°C° 0 mm 1 mps 772 mmHg 81%
    23:00 +5°C° 0 mm 1 mps 772 mmHg 83%

    Tomorrow, 26 June, Wednesday

    Time Temperature Precipitation Wind Pressure Humidity
    00:00 +5°C° 0 mm 1 mps 772 mmHg 85%
    01:00 +5°C° 0 mm 1 mps 772 mmHg 85%
    02:00 +5°C° 0 mm 1 mps 772 mmHg 86%
    03:00 +4°C° 0 mm 1 mps 772 mmHg 87%
    04:00 +5°C° 0 mm 1 mps 772 mmHg 86%
    05:00 +5°C° 0 mm 1 mps 772 mmHg 85%
    06:00 +5°C° 0 mm 1 mps 772 mmHg 84%
    07:00 +6°C° 0 mm 1 mps 773 mmHg 84%
    08:00 +6°C° 0 mm 1 mps 773 mmHg 83%
    09:00 +7°C° 0 mm 1 mps 773 mmHg 82%
    10:00 +8°C° 0 mm 1 mps 773 mmHg 79%
    11:00 +9°C° 0 mm 2 mps 773 mmHg 76%
    12:00 +10°C° 0 mm 2 mps 773 mmHg 74%
    13:00 +10°C° 0 mm 2 mps 773 mmHg 74%
    14:00 +10°C° 0 mm 3 mps 772 mmHg 74%
    15:00 +10°C° 0 mm 3 mps 772 mmHg 74%
    16:00 +9°C° 0 mm 3 mps 772 mmHg 80%
    17:00 +7°C° 0 mm 3 mps 772 mmHg 86%
    18:00 +6°C° 0 mm 2 mps 773 mmHg 92%
    19:00 +6°C° 0 mm 2 mps 773 mmHg 91%
    20:00 +5°C° 0 mm 2 mps 773 mmHg 90%
    21:00 +6°C° 0 mm 1 mps 773 mmHg 90%
    22:00 +6°C° 0 mm 1 mps 774 mmHg 87%
    23:00 +5°C° 0 mm 1 mps 774 mmHg 84%

    Day after tomorrow, 27 June, Thursday

    Time Temperature Precipitation Wind Pressure Humidity
    00:00 +5°C° 0 mm 1 mps 774 mmHg 81%
    01:00 +5°C° 0 mm 1 mps 774 mmHg 80%
    02:00 +4°C° 0 mm 1 mps 774 mmHg 78%
    03:00 +4°C° 0 mm 1 mps 774 mmHg 77%
    04:00 +4°C° 0 mm 1 mps 775 mmHg 77%
    05:00 +4°C° 0 mm 1 mps 775 mmHg 76%
    06:00 +4°C° 0 mm 1 mps 775 mmHg 76%
    07:00 +4°C° 0 mm 1 mps 775 mmHg 74%
    08:00 +5°C° 0 mm 1 mps 775 mmHg 72%
    09:00 +5°C° 0 mm 1 mps 776 mmHg 70%
    10:00 +7°C° 0 mm 1 mps 776 mmHg 65%
    11:00 +10°C° 0 mm 1 mps 776 mmHg 60%
    12:00 +12°C° 0 mm 1 mps 776 mmHg 55%
    13:00 +12°C° 0 mm 2 mps 775 mmHg 56%
    14:00 +12°C° 0 mm 2 mps 775 mmHg 57%
    15:00 +11°C° 0 mm 3 mps 774 mmHg 57%
    16:00 +9°C° 0 mm 3 mps 774 mmHg 64%
    17:00 +8°C° 0 mm 3 mps 775 mmHg 71%
    18:00 +5°C° 0 mm 3 mps 775 mmHg 77%
    19:00 +6°C° 0 mm 2 mps 775 mmHg 79%
    20:00 +5°C° 0 mm 2 mps 775 mmHg 80%
    21:00 +5°C° 0 mm 2 mps 776 mmHg 82%
    22:00 +6°C° 0 mm 1 mps 776 mmHg 81%
    23:00 +5°C° 0 mm 1 mps 776 mmHg 80%

    28 June, Friday

    Time Temperature Precipitation Wind Pressure Humidity
    00:00 +5°C° 0 mm 1 mps 776 mmHg 79%
    01:00 +5°C° 0 mm 1 mps 776 mmHg 78%
    02:00 +5°C° 0 mm 1 mps 776 mmHg 76%
    03:00 +4°C° 0 mm 1 mps 776 mmHg 75%
    04:00 +4°C° 0 mm 1 mps 776 mmHg 73%
    05:00 +4°C° 0 mm 1 mps 776 mmHg 71%
    06:00 +4°C° 0 mm 1 mps 776 mmHg 69%
    07:00 +4°C° 0 mm 1 mps 776 mmHg 68%
    08:00 +5°C° 0 mm 1 mps 776 mmHg 66%
    09:00 +5°C° 0 mm 1 mps 776 mmHg 65%
    10:00 +7°C° 0 mm 1 mps 776 mmHg 60%
    11:00 +9°C° 0 mm 1 mps 776 mmHg 55%
    12:00 +11°C° 0 mm 1 mps 776 mmHg 49%
    13:00 +10°C° 0 mm 0 mps 775 mmHg 50%
    14:00 +11°C° 0 mm 0 mps 775 mmHg 51%
    15:00 +11°C° 0 mm 0 mps 774 mmHg 53%
    16:00 +10°C° 0 mm 1 mps 775 mmHg 58%
    17:00 +8°C° 0 mm 1 mps 775 mmHg 63%
    18:00 +6°C° 0 mm 1 mps 775 mmHg 69%
    19:00 +6°C° 0 mm 1 mps 775 mmHg 70%
    20:00 +5°C° 0 mm 2 mps 775 mmHg 71%
    21:00 +5°C° 0 mm 2 mps 775 mmHg 72%
    22:00 +4°C° 0 mm 2 mps 775 mmHg 73%
    23:00 +4°C° 0 mm 2 mps 775 mmHg 74%

    29 June, Saturday

    Time Temperature Precipitation Wind Pressure Humidity
    00:00 +5°C° 0 mm 1 mps 774 mmHg 75%
    01:00 +4°C° 0 mm 2 mps 774 mmHg 76%
    02:00 +4°C° 0 mm 2 mps 774 mmHg 76%
    03:00 +4°C° 0 mm 2 mps 773 mmHg 77%
    04:00 +4°C° 0 mm 2 mps 773 mmHg 78%
    05:00 +3°C° 0 mm 2 mps 772 mmHg 79%
    06:00 +3°C° 0 mm 2 mps 772 mmHg 80%
    07:00 +4°C° 0 mm 2 mps 772 mmHg 78%
    08:00 +4°C° 0 mm 2 mps 772 mmHg 77%
    09:00 +4°C° 0 mm 2 mps 772 mmHg 76%
    10:00 +6°C° 0 mm 2 mps 772 mmHg 71%
    11:00 +8°C° 0 mm 2 mps 772 mmHg 65%
    12:00 +10°C° 0 mm 2 mps 772 mmHg 60%
    13:00 +12°C° 0 mm 2 mps 771 mmHg 62%
    14:00 +12°C° 0 mm 2 mps 771 mmHg 64%
    15:00 +12°C° 0 mm 1 mps 771 mmHg 65%
    16:00 +10°C° 0 mm 1 mps 771 mmHg 68%
    17:00 +8°C° 0 mm 1 mps 772 mmHg 72%
    18:00 +7°C° 0 mm 1 mps 772 mmHg 75%
    19:00 +6°C° 0 mm 1 mps 772 mmHg 75%
    20:00 +5°C° 0 mm 2 mps 772 mmHg 76%
    21:00 +4°C° 0 mm 2 mps 772 mmHg 76%
    22:00 +4°C° 0 mm 2 mps 772 mmHg 76%
    23:00 +4°C° 0 mm 2 mps 772 mmHg 76%

    30 June, Sunday

    Time Temperature Precipitation Wind Pressure Humidity
    00:00 +4°C° 0 mm 2 mps 772 mmHg 76%
    01:00 +4°C° 0 mm 2 mps 772 mmHg 76%
    02:00 +4°C° 0 mm 2 mps 772 mmHg 77%
    03:00 +4°C° 0 mm 1 mps 772 mmHg 77%
    04:00 +4°C° 0 mm 1 mps 772 mmHg 77%
    05:00 +4°C° 0 mm 1 mps 772 mmHg 77%
    06:00 +4°C° 0 mm 1 mps 772 mmHg 77%
    07:00 +4°C° 0 mm 1 mps 772 mmHg 76%
    08:00 +5°C° 0 mm 1 mps 772 mmHg 75%
    09:00 +5°C° 0 mm 1 mps 773 mmHg 75%
    10:00 +7°C° 0 mm 1 mps 772 mmHg 70%
    11:00 +8°C° 0 mm 1 mps 772 mmHg 65%
    12:00 +10°C° 0 mm 1 mps 772 mmHg 60%
    13:00 +10°C° 0 mm 1 mps 771 mmHg 62%
    14:00 +9°C° 0 mm 2 mps 771 mmHg 63%
    15:00 +9°C° 0 mm 2 mps 771 mmHg 65%
    16:00 +8°C° 0 mm 2 mps 770 mmHg 69%
    17:00 +6°C° 0 mm 2 mps 770 mmHg 74%
    18:00 +5°C° 0 mm 2 mps 770 mmHg 79%
    19:00 +5°C° 0 mm 2 mps 770 mmHg 82%
    20:00 +5°C° 0 mm 2 mps 770 mmHg 84%
    21:00 +4°C° 0 mm 3 mps 770 mmHg 87%
    22:00 +5°C° 0 mm 2 mps 769 mmHg 87%
    23:00 +5°C° 0 mm 2 mps 769 mmHg 87%
    Show more